[[{"header":{"parameterUnit":"m.s-1","parameterCategory":1,"la1":30.2991,"la2":30.254,"lo1":-89.0895,"lo2":-89.0444,"dy":0.0017,"dx":0.0017,"nx":28,"ny":28,"refTime":"2024-08-14T09:00:00:Z","depth":0,"parameterNumber":2,"parameterNumberName":"U-component_of_WINDS"},"data":[0,0,0,0,0,0,0,0,0,0,0,0,0,0,0,0,0,0,0,0,0,0,0,0,0,0,0,0,0,0,0,0,0,0,0,0,0,0,0,0,0,0,0,0,0,0,0,0,0,0,0,0,0,0,0,0,0,0,3.4029,3.4029,0,3.4045,3.4045,3.4045,3.3879,3.3875,3.387,3.3866,3.3883,3.3887,3.3892,0,0,0,0,0,0,0,0,0,0,0,0,0,3.3856,3.386,3.4029,3.4029,3.4029,3.4045,3.4045,3.4045,3.388,3.3874,3.3869,3.3864,3.3881,3.3887,3.3892,0,0,0,0,0,0,0,0,0,0,0,0,0,3.3907,3.3861,3.4029,3.3949,3.3942,3.4045,3.4045,3.4045,3.3881,3.3874,3.3867,3.3861,3.3879,3.3886,3.3893,3.4074,0,0,3.3915,3.3918,0,0,0,0,0,0,0,0,3.3905,3.3914,3.396,3.3954,3.3947,3.3953,3.399,3.4055,3.3883,3.3904,3.3866,3.3858,3.3912,3.3916,3.3934,3.4075,3.4075,3.3915,3.392,3.3923,3.3925,0,0,0,0,0,0,0,3.3901,3.3912,3.4035,3.3961,3.3953,3.3912,3.3912,3.4002,3.3946,3.3902,3.389,3.3894,3.3907,3.3927,3.3933,3.4076,3.3915,3.3921,3.3926,3.3929,3.4365,3.4372,0,0,0,0,0,0,3.3908,3.391,3.4035,3.4036,3.3908,3.3921,3.392,3.3958,3.3945,3.3936,3.39,3.3886,3.3919,3.3925,3.3933,3.4142,3.3923,3.3929,3.3933,3.4358,3.4366,3.4374,0,0,0,0,0,0,3.3905,3.3921,3.4034,3.397,3.3981,3.3931,3.3974,3.3962,3.3982,3.3943,3.3932,3.3931,3.3913,3.3923,3.404,3.4141,3.3932,3.3939,3.4349,3.436,3.437,3.4564,0,0,0,0,0,0,3.3901,3.3921,3.3989,3.3973,3.3985,3.4141,3.3981,3.3967,3.3995,3.3977,3.397,3.3962,3.3909,3.403,3.4047,3.4147,3.3944,3.4339,3.4354,3.4367,3.4549,3.4581,3.4608,0,0,0,0,0,3.3896,3.4043,3.3993,3.4009,3.4069,3.4147,3.4154,3.409,3.4004,3.4072,3.4046,3.3962,3.4128,3.4044,3.4061,3.4164,3.4333,3.435,3.4366,3.4535,3.4574,3.4607,0,0,0,0,0,0,3.4073,3.404,3.3984,3.4131,3.4143,3.4119,3.4203,3.4134,3.4171,3.4153,3.4072,3.4071,3.4202,3.4195,3.4102,3.4338,3.4215,3.4236,3.4338,3.4374,3.4404,3.4402,3.395,0,0,0,0,0,3.413,3.4196,3.4163,3.4296,3.4305,3.4254,3.4285,3.4235,3.4244,3.4249,3.4232,3.4245,3.4299,3.4336,3.4384,3.4547,3.4543,3.4627,3.4657,3.4681,3.47,3.4784,3.4821,3.4429,3.4429,3.4428,0,0,3.4247,3.4237,3.4283,3.4332,3.4335,3.4405,3.4259,3.434,3.4391,3.4261,3.4369,3.4358,3.4367,3.4508,3.4568,3.4506,3.4807,3.4702,3.4722,3.4727,3.4805,3.4842,3.4875,3.444,3.4438,3.4436,0,0,3.4495,3.4495,3.4605,3.4612,3.4619,3.4584,3.4611,3.4597,3.4584,3.4693,3.4596,3.4656,3.4752,3.4762,3.4779,3.5033,3.4956,3.5051,3.5205,3.5288,3.5319,3.5346,3.5435,3.5468,3.507,3.507,3.5071,0,3.4639,3.4741,3.467,3.4757,3.4781,3.4667,3.4777,3.4787,3.4811,3.483,3.4759,3.4876,3.4874,3.5015,3.5077,3.5096,3.5123,3.505,3.5321,3.5347,3.5371,3.5455,3.5489,3.5082,3.508,3.5079,3.5078,0,3.4918,3.499,3.5078,3.5103,3.5137,3.5235,3.5179,3.5222,3.5169,3.5142,3.5253,3.5247,3.5291,3.5321,3.527,3.5455,3.5415,3.5335,3.5208,3.5421,3.5498,3.553,3.5098,3.5094,3.509,3.5088,0,0,3.5277,3.5262,3.5295,3.5305,3.5305,3.5359,3.5453,3.5496,3.5534,3.5554,3.563,3.5714,3.5639,3.5659,3.5608,3.5682,3.5882,3.5591,3.559,3.5644,3.6083,3.6143,3.6181,3.5831,3.5837,3.5842,3.6082,0,3.5518,3.5676,3.5615,3.5778,3.5843,3.5737,3.5818,3.5827,3.5804,3.5856,3.583,3.5891,3.5788,3.5799,3.5867,3.5843,3.5968,3.5825,3.59,3.5904,3.59,3.6222,3.6285,3.6511,3.6112,3.6117,3.612,0,3.5819,3.5851,3.6021,3.6009,3.6034,3.6109,3.6143,3.6194,3.6202,3.618,3.6204,3.6137,3.6228,3.6104,3.6227,3.6131,3.6159,3.6152,3.6159,3.6162,3.6024,3.6232,3.6582,3.6616,3.6168,3.6164,3.6161,0,3.6063,3.6148,3.626,3.6272,3.6262,3.6316,3.6315,3.6316,3.6346,3.6376,3.6394,3.6436,3.6458,3.6491,3.6438,3.6353,3.6569,3.644,3.6552,3.6554,3.6601,3.6598,3.6959,3.6622,3.6622,3.6621,3.662,0,3.6336,3.6444,3.6369,3.6438,3.6556,3.6485,3.6603,3.659,3.6592,3.6656,3.6567,3.6629,3.6555,3.661,3.6569,3.6677,3.6688,3.6672,3.666,3.6679,3.6681,3.6695,3.6677,3.663,3.6628,3.6626,3.6625,0,3.6627,3.6582,3.6696,3.6677,3.6675,3.6763,3.6746,3.6809,3.678,3.6862,3.6878,3.6833,3.6893,3.6843,3.6902,3.6874,3.7017,3.6983,3.7014,3.7004,3.7118,3.7107,3.7498,3.7545,3.7181,3.7184,3.7187,0,3.6804,3.6884,3.6874,3.691,3.6914,3.6974,3.7004,3.6938,3.6973,3.6989,3.705,3.7103,3.7141,3.7242,3.7215,3.7259,3.7224,3.7359,3.723,3.7247,3.7224,3.722,3.7227,3.7384,3.7388,3.7392,3.7395,0,3.7122,3.7095,3.7142,3.7182,3.722,3.7248,3.7268,3.7303,3.7236,3.728,3.734,3.7371,3.743,3.7484,3.7519,3.7517,3.7445,3.7436,3.7463,3.7483,3.7497,3.7489,3.7083,3.7426,3.7423,3.7421,3.7419,3.7418,3.7359,3.7425,3.7428,3.7483,3.7492,3.7513,3.7571,3.755,3.7599,3.7643,3.7601,3.7674,3.768,3.772,3.7727,3.7783,3.7727,3.7768,3.7778,3.7788,3.7804,3.7491,3.7789,3.7788,3.7787,3.7787,3.7786,0,3.7671,3.7668,3.7719,3.7751,3.7794,3.7724,3.7743,3.7784,3.7849,3.7861,3.79,3.797,3.8021,3.7999,3.8043,3.8093,3.8061,3.8106,3.8101,3.8101,3.7852,3.7823,3.8131,3.8131,3.8131,3.8131,3.8131,3.8131,3.7838,3.7945,3.792,3.8031,3.8026,3.8097,3.8114,3.8134,3.8142,3.8224,3.8266,3.8251,3.8249,3.8293,3.8337,3.8329,3.8348,3.8406,3.8386,3.8153,3.8119,3.8087,3.8058,3.8411,3.8412,3.863,3.8632,3.8634]},{"header":{"parameterUnit":"m.s-1","parameterCategory":1,"la1":30.2991,"la2":30.254,"lo1":-89.0895,"lo2":-89.0444,"dy":0.0017,"dx":0.0017,"nx":28,"ny":28,"refTime":"2024-08-14T09:00:00:Z","depth":0,"parameterNumber":3,"parameterNumberName":"V-component_of_WINDS"},"data":[0,0,0,0,0,0,0,0,0,0,0,0,0,0,0,0,0,0,0,0,0,0,0,0,0,0,0,0,0,0,0,0,0,0,0,0,0,0,0,0,0,0,0,0,0,0,0,0,0,0,0,0,0,0,0,0,0,0,0.1238,0.1239,0,0.13,0.1301,0.1302,0.1316,0.1315,0.1315,0.1315,0.138,0.1382,0.1384,0,0,0,0,0,0,0,0,0,0,0,0,0,0.1131,0.1133,0.1238,0.1239,0.1239,0.13,0.1301,0.1302,0.1316,0.1315,0.1315,0.1314,0.1379,0.1382,0.1384,0,0,0,0,0,0,0,0,0,0,0,0,0,0.1184,0.1134,0.1238,0.1254,0.1256,0.13,0.1301,0.1302,0.1316,0.1315,0.1315,0.1314,0.1378,0.1381,0.1385,0.1418,0,0,0.1394,0.1396,0,0,0,0,0,0,0,0,0.1181,0.1188,0.1251,0.1253,0.1255,0.13,0.1287,0.1341,0.1316,0.1293,0.1315,0.1314,0.1354,0.1359,0.1372,0.1421,0.1423,0.1395,0.1397,0.1398,0.1399,0,0,0,0,0,0,0,0.1177,0.1185,0.1263,0.1252,0.1254,0.1258,0.1265,0.1298,0.1327,0.1295,0.1296,0.1303,0.1355,0.1369,0.1374,0.1424,0.1395,0.1397,0.1399,0.1401,0.1501,0.1502,0,0,0,0,0,0,0.1171,0.1182,0.1261,0.1264,0.1216,0.126,0.1268,0.1286,0.1326,0.1332,0.1304,0.1304,0.1364,0.137,0.1376,0.1417,0.1398,0.1401,0.1403,0.1501,0.1502,0.1502,0,0,0,0,0,0,0.1168,0.1178,0.1258,0.1224,0.1234,0.1263,0.1283,0.1288,0.1302,0.1333,0.1338,0.1313,0.1364,0.1372,0.1407,0.1419,0.1402,0.1405,0.15,0.1501,0.1502,0.1498,0,0,0,0,0,0,0.1165,0.1177,0.119,0.1224,0.1236,0.1288,0.1284,0.1289,0.1307,0.1308,0.1343,0.1348,0.1364,0.1402,0.141,0.1423,0.1408,0.1499,0.15,0.1502,0.1497,0.1499,0.1501,0,0,0,0,0,0.1162,0.1187,0.119,0.12,0.1253,0.1288,0.1295,0.1313,0.1308,0.1321,0.1341,0.1347,0.1416,0.1405,0.1415,0.1429,0.1498,0.15,0.1502,0.1497,0.1499,0.1501,0,0,0,0,0,0,0.1155,0.1192,0.1196,0.1233,0.1257,0.1291,0.1308,0.1314,0.1341,0.134,0.1361,0.1369,0.1402,0.1419,0.1406,0.1462,0.1457,0.1461,0.145,0.1452,0.1454,0.1449,0.1411,0,0,0,0,0,0.1157,0.1183,0.1214,0.1244,0.1255,0.1279,0.1296,0.1307,0.1333,0.1343,0.1366,0.1391,0.1418,0.1436,0.1463,0.1499,0.1507,0.1514,0.1515,0.1517,0.152,0.1539,0.1542,0.1508,0.1508,0.1508,0,0,0.1163,0.1187,0.1202,0.1243,0.1263,0.1289,0.1288,0.1316,0.1336,0.1348,0.1382,0.1399,0.1429,0.1464,0.1481,0.1479,0.153,0.1519,0.1519,0.1522,0.1541,0.1544,0.1547,0.1509,0.1509,0.1509,0,0,0.1188,0.1208,0.1234,0.1254,0.1284,0.1299,0.1306,0.1338,0.1349,0.1384,0.1393,0.1416,0.1463,0.1484,0.15,0.153,0.1536,0.1538,0.1546,0.1565,0.1567,0.157,0.158,0.1583,0.1541,0.1541,0.1541,0,0.1192,0.1231,0.1247,0.1274,0.1292,0.1303,0.1329,0.1348,0.1385,0.1397,0.1394,0.1452,0.1473,0.1513,0.152,0.1533,0.154,0.1534,0.1566,0.1568,0.1571,0.1581,0.1584,0.1541,0.1541,0.1541,0.1541,0,0.1234,0.1261,0.1279,0.1314,0.1333,0.136,0.138,0.1397,0.1406,0.1421,0.1456,0.1481,0.1512,0.1522,0.1532,0.1563,0.1561,0.1562,0.1557,0.1574,0.1583,0.1587,0.1541,0.1541,0.1541,0.1541,0,0,0.1258,0.1299,0.1306,0.1321,0.1354,0.1375,0.1402,0.1432,0.1446,0.1471,0.1494,0.1532,0.1532,0.1551,0.1562,0.1578,0.1599,0.1577,0.1578,0.158,0.1634,0.1634,0.1638,0.1603,0.1604,0.1604,0.1632,0,0.1286,0.1334,0.1348,0.1388,0.1413,0.1422,0.1445,0.1468,0.1483,0.1506,0.1522,0.1549,0.1547,0.1558,0.1575,0.1593,0.161,0.1591,0.1624,0.1625,0.1617,0.1643,0.1643,0.1668,0.1636,0.1636,0.1637,0,0.1326,0.135,0.1392,0.142,0.1431,0.1452,0.148,0.1501,0.1527,0.1536,0.1556,0.1565,0.1593,0.1585,0.1624,0.161,0.1624,0.1635,0.1636,0.1641,0.1632,0.1648,0.1676,0.168,0.1643,0.1642,0.1642,0,0.1339,0.1382,0.1412,0.1425,0.1459,0.1472,0.1487,0.1512,0.1528,0.1552,0.1563,0.1591,0.1606,0.1626,0.1643,0.1636,0.1679,0.1673,0.1687,0.1687,0.1697,0.1696,0.1728,0.1705,0.1705,0.1705,0.1705,0,0.1369,0.1394,0.1418,0.1437,0.1465,0.1481,0.1508,0.1524,0.1545,0.1566,0.1576,0.1596,0.1617,0.1639,0.1652,0.1681,0.1688,0.1696,0.1699,0.1695,0.1694,0.1705,0.1704,0.1706,0.1706,0.1706,0.1706,0,0.1388,0.1405,0.1439,0.1467,0.1475,0.1494,0.1518,0.1537,0.1551,0.1578,0.1585,0.1608,0.1635,0.1653,0.1687,0.1696,0.1727,0.173,0.1719,0.172,0.1733,0.1732,0.1773,0.1779,0.1753,0.1753,0.1753,0,0.1407,0.1426,0.1456,0.1471,0.1485,0.1509,0.1525,0.1541,0.1558,0.1587,0.1602,0.1629,0.1652,0.1694,0.1713,0.1739,0.1743,0.1756,0.1747,0.1742,0.1743,0.1742,0.1743,0.1757,0.1758,0.1758,0.1758,0,0.1438,0.1444,0.1468,0.1493,0.1512,0.1533,0.1554,0.1566,0.1585,0.1604,0.1631,0.1648,0.1682,0.1709,0.1737,0.1752,0.1758,0.176,0.1765,0.1761,0.1754,0.1757,0.1722,0.1759,0.1759,0.1759,0.1759,0.1759,0.1457,0.1474,0.1497,0.1522,0.1539,0.1558,0.1577,0.1592,0.1615,0.1644,0.1652,0.168,0.1703,0.174,0.1755,0.1777,0.1776,0.1783,0.1785,0.1786,0.1786,0.1749,0.1782,0.1782,0.1782,0.1782,0.1782,0,0.1488,0.1503,0.1526,0.1554,0.1573,0.1576,0.1599,0.1615,0.164,0.166,0.1682,0.1712,0.1738,0.1758,0.1784,0.1798,0.1801,0.1804,0.1804,0.1807,0.1786,0.1779,0.1801,0.1801,0.1801,0.1801,0.1801,0.1801,0.1507,0.1536,0.1545,0.1582,0.1597,0.1623,0.1636,0.1653,0.167,0.1703,0.1724,0.1737,0.1757,0.1784,0.1807,0.1813,0.1822,0.1824,0.183,0.181,0.1808,0.1806,0.18,0.1826,0.1826,0.1849,0.1849,0.185]}]]